DKH1728 ZJSY-ZSNJ

Flight info

Callsign DKH1728
Flight time 2h 30m
Altitude 35100
Route PORAP9ZD PORAP W222 NUMKU W223 AGTEL W71 LH DCT GYA B330 POU G471 SHL W26 UPRIK W41 DOPKU G471 EGEDA/K0841S1100 G471 PLT/K0822S1070 W19 RUNEK DCT KHN/K0826S1100 DCT NCH/K0800S1130 DCT P262 H2 HFE W51 LEGIV W164 OREVO
Aircraft A320/M-SDE3FGHIRWY/LB1

Departure

Time 2026-04-23 09:32
Airport Sanya Phoenix International Airport (ZJSY)

Arrival

Time 2026-04-23 12:02
Airport Nanjing Lukou International Airport (ZSNJ)
Time Latitude Longitude Altitude Speed Heading
2026-04-23 09:09 18.30822 109.40750 84 ft 0 kts 353°
2026-04-23 09:21 18.30815 109.40751 88 ft 2 kts 352°
2026-04-23 09:21 18.30799 109.40753 88 ft 2 kts 353°
2026-04-23 09:22 18.30783 109.40755 87 ft 2 kts 353°
2026-04-23 09:22 18.30766 109.40757 83 ft 2 kts 353°
2026-04-23 09:22 18.30750 109.40759 87 ft 2 kts 348°
2026-04-23 09:22 18.30735 109.40766 85 ft 2 kts 291°
2026-04-23 09:23 18.30731 109.40783 86 ft 2 kts 274°
2026-04-23 09:23 18.30730 109.40800 87 ft 2 kts 268°
2026-04-23 09:23 18.30731 109.40816 84 ft 1 kts 264°
2026-04-23 09:23 18.30731 109.40820 87 ft 0 kts 263°
2026-04-23 09:25 18.30725 109.40800 85 ft 5 kts 238°
2026-04-23 09:25 18.30682 109.40792 86 ft 9 kts 172°
2026-04-23 09:26 18.30605 109.40803 84 ft 13 kts 172°
2026-04-23 09:26 18.30505 109.40817 84 ft 14 kts 172°
2026-04-23 09:26 18.30444 109.40824 87 ft 5 kts 182°
2026-04-23 09:26 18.30408 109.40789 86 ft 10 kts 255°
2026-04-23 09:27 18.30396 109.40701 86 ft 14 kts 262°
2026-04-23 09:27 18.30381 109.40586 83 ft 11 kts 262°
2026-04-23 09:27 18.30373 109.40519 88 ft 11 kts 262°
2026-04-23 09:27 18.30360 109.40420 84 ft 16 kts 262°
2026-04-23 09:28 18.30343 109.40290 86 ft 20 kts 262°
2026-04-23 09:28 18.30321 109.40132 84 ft 20 kts 262°
2026-04-23 09:28 18.30304 109.40009 84 ft 19 kts 261°
2026-04-23 09:28 18.30291 109.39892 84 ft 16 kts 263°
2026-04-23 09:29 18.30274 109.39761 84 ft 20 kts 262°
2026-04-23 09:29 18.30263 109.39680 85 ft 7 kts 257°
2026-04-23 09:29 18.30240 109.39641 87 ft 8 kts 224°
2026-04-23 09:29 18.30190 109.39632 85 ft 0 kts 171°
2026-04-23 09:30 18.30174 109.39634 88 ft 4 kts 171°
2026-04-23 09:30 18.30132 109.39640 86 ft 8 kts 173°
2026-04-23 09:30 18.30087 109.39671 86 ft 9 kts 98°
2026-04-23 09:30 18.30091 109.39696 87 ft 0 kts 82°
2026-04-23 09:31 18.30091 109.39697 88 ft 1 kts 82°
2026-04-23 09:31 18.30097 109.39743 86 ft 27 kts 82°
2026-04-23 09:31 18.30191 109.40459 84 ft 116 kts 82°
2026-04-23 09:31 18.30323 109.41480 89 ft 163 kts 83°
2026-04-23 09:32 18.30480 109.42741 462 ft 175 kts 83°
2026-04-23 09:32 18.30594 109.43597 916 ft 174 kts 83°
2026-04-23 09:32 18.30832 109.45260 1828 ft 172 kts 84°
2026-04-23 09:32 18.31004 109.46503 2392 ft 172 kts 85°
2026-04-23 09:33 18.31117 109.47343 2771 ft 172 kts 84°
2026-04-23 09:33 18.31588 109.48929 3390 ft 182 kts 46°
2026-04-23 09:33 18.32291 109.49491 3511 ft 196 kts 30°
2026-04-23 09:33 18.33511 109.50296 3695 ft 218 kts 32°
2026-04-23 09:34 18.34851 109.51223 3918 ft 242 kts 33°
2026-04-23 09:34 18.36279 109.52233 4509 ft 250 kts 32°
2026-04-23 09:34 18.37728 109.53268 5219 ft 253 kts 32°
2026-04-23 09:34 18.39194 109.54317 5944 ft 256 kts 32°
2026-04-23 09:35 18.40678 109.55384 6615 ft 260 kts 33°
2026-04-23 09:35 18.42186 109.56469 7237 ft 265 kts 33°
2026-04-23 09:35 18.43718 109.57576 7892 ft 269 kts 33°
2026-04-23 09:35 18.45274 109.58700 8521 ft 274 kts 34°
2026-04-23 09:36 18.46855 109.59838 9200 ft 277 kts 34°
2026-04-23 09:36 18.48454 109.60988 9830 ft 281 kts 33°
2026-04-23 09:36 18.50194 109.61965 10292 ft 291 kts 24°
2026-04-23 09:36 18.52108 109.62883 10443 ft 314 kts 24°
2026-04-23 09:37 18.54143 109.63853 10561 ft 337 kts 23°
2026-04-23 09:37 18.56343 109.64900 10744 ft 356 kts 23°
2026-04-23 09:37 18.58629 109.65990 11220 ft 363 kts 23°
2026-04-23 09:37 18.60940 109.67097 11821 ft 367 kts 23°
2026-04-23 09:38 18.63271 109.68218 12434 ft 369 kts 23°
2026-04-23 09:38 18.65618 109.69342 13045 ft 372 kts 23°
2026-04-23 09:38 18.67982 109.70471 13656 ft 374 kts 23°
2026-04-23 09:38 18.70359 109.71608 14189 ft 377 kts 22°
2026-04-23 09:39 18.72758 109.72758 14706 ft 380 kts 23°
2026-04-23 09:39 18.75173 109.73918 15209 ft 383 kts 22°
2026-04-23 09:39 18.77606 109.75089 15714 ft 386 kts 22°
2026-04-23 09:39 18.80057 109.76272 16206 ft 389 kts 22°
2026-04-23 09:40 18.82532 109.77463 16686 ft 392 kts 22°
2026-04-23 09:40 18.85023 109.78657 17144 ft 395 kts 22°
2026-04-23 09:40 18.87538 109.79862 17614 ft 398 kts 22°
2026-04-23 09:40 18.90070 109.81074 18091 ft 401 kts 22°
2026-04-23 09:41 18.92617 109.82293 18483 ft 404 kts 22°
2026-04-23 09:41 18.95183 109.83526 18897 ft 406 kts 22°
2026-04-23 09:41 18.97763 109.84769 19299 ft 409 kts 22°
2026-04-23 09:41 19.00356 109.86022 19687 ft 411 kts 22°
2026-04-23 09:42 19.02965 109.87283 20059 ft 414 kts 22°
2026-04-23 09:42 19.05590 109.88550 20436 ft 416 kts 22°
2026-04-23 09:42 19.08230 109.89822 20816 ft 419 kts 22°
2026-04-23 09:42 19.10890 109.91106 21199 ft 421 kts 22°
2026-04-23 09:43 19.13560 109.92397 21581 ft 423 kts 21°
2026-04-23 09:43 19.16247 109.93696 21944 ft 426 kts 21°
2026-04-23 09:43 19.18950 109.95000 22309 ft 428 kts 21°
2026-04-23 09:43 19.21668 109.96308 22658 ft 431 kts 21°
2026-04-23 09:44 19.24406 109.97625 23011 ft 433 kts 21°
2026-04-23 09:44 19.27162 109.98943 23371 ft 436 kts 21°
2026-04-23 09:44 19.29941 110.00241 23662 ft 438 kts 20°
2026-04-23 09:44 19.32741 110.01529 23956 ft 440 kts 20°
2026-04-23 09:45 19.35553 110.02844 24242 ft 443 kts 21°
2026-04-23 09:45 19.38366 110.04188 24532 ft 445 kts 21°
2026-04-23 09:45 19.41187 110.05550 24825 ft 447 kts 21°
2026-04-23 09:45 19.44022 110.06927 25155 ft 449 kts 21°
2026-04-23 09:46 19.46867 110.08311 25428 ft 451 kts 21°
2026-04-23 09:46 19.49724 110.09702 25716 ft 453 kts 21°
2026-04-23 09:46 19.52598 110.11094 25991 ft 455 kts 21°
2026-04-23 09:46 19.55481 110.12488 26261 ft 457 kts 21°
2026-04-23 09:47 19.58380 110.13886 26533 ft 459 kts 21°
2026-04-23 09:47 19.61288 110.15289 26809 ft 460 kts 21°
2026-04-23 09:47 19.64209 110.16700 27088 ft 462 kts 21°
2026-04-23 09:47 19.67141 110.18118 27355 ft 464 kts 21°
2026-04-23 09:48 19.70087 110.19547 27626 ft 466 kts 21°
2026-04-23 09:48 19.72959 110.20942 27880 ft 468 kts 21°
2026-04-23 09:48 19.75928 110.22385 28152 ft 470 kts 21°
2026-04-23 09:48 19.78906 110.23830 28394 ft 472 kts 21°
2026-04-23 09:49 19.81899 110.25280 28643 ft 474 kts 21°
2026-04-23 09:49 19.84904 110.26737 28878 ft 475 kts 21°
2026-04-23 09:49 19.87917 110.28199 29109 ft 477 kts 21°
2026-04-23 09:49 19.90940 110.29669 29348 ft 479 kts 21°
2026-04-23 09:50 19.93970 110.31144 29579 ft 480 kts 21°
2026-04-23 09:50 19.97009 110.32624 29815 ft 481 kts 21°
2026-04-23 09:50 20.00062 110.34111 30016 ft 483 kts 21°
2026-04-23 09:50 20.03123 110.35577 30226 ft 482 kts 18°
2026-04-23 09:51 20.06303 110.36647 30417 ft 478 kts
2026-04-23 09:51 20.09575 110.37146 30663 ft 473 kts 359°
2026-04-23 09:51 20.12841 110.37086 30951 ft 466 kts 350°
2026-04-23 09:51 20.16018 110.36524 31230 ft 462 kts 345°
2026-04-23 09:52 20.19167 110.35853 31515 ft 461 kts 345°
2026-04-23 09:52 20.22312 110.35187 31792 ft 460 kts 345°
2026-04-23 09:52 20.25448 110.34527 32074 ft 459 kts 345°
2026-04-23 09:52 20.28584 110.33869 32351 ft 459 kts 345°
2026-04-23 09:53 20.31711 110.33211 32627 ft 458 kts 345°
2026-04-23 09:53 20.34837 110.32553 32908 ft 457 kts 345°
2026-04-23 09:53 20.37915 110.31903 33183 ft 456 kts 345°
2026-04-23 09:53 20.41025 110.31245 33469 ft 456 kts 345°
2026-04-23 09:54 20.44131 110.30588 33751 ft 455 kts 345°
2026-04-23 09:54 20.47234 110.29929 33999 ft 454 kts 345°
2026-04-23 09:54 20.50373 110.29480 34225 ft 458 kts 354°
2026-04-23 09:54 20.53574 110.29549 34439 ft 461 kts 360°
2026-04-23 09:55 20.56778 110.29763 34638 ft 461 kts 360°
2026-04-23 09:55 20.59980 110.29983 34843 ft 461 kts 360°
2026-04-23 09:55 20.63175 110.30200 34924 ft 459 kts 359°
2026-04-23 09:56 20.69533 110.30616 34935 ft 457 kts 359°
2026-04-23 09:56 20.75878 110.31026 34935 ft 457 kts 359°
2026-04-23 09:57 20.82227 110.31444 34943 ft 457 kts 359°
2026-04-23 09:57 20.88578 110.31855 34942 ft 458 kts 359°
2026-04-23 09:58 20.94933 110.32277 34944 ft 458 kts 359°
2026-04-23 09:58 21.01297 110.32689 34948 ft 458 kts 359°
2026-04-23 09:59 21.07613 110.32621 34947 ft 449 kts 344°
2026-04-23 09:59 21.10575 110.31672 34950 ft 442 kts 332°
2026-04-23 09:59 21.13251 110.30111 34940 ft 435 kts 321°
2026-04-23 09:59 21.15548 110.28043 34940 ft 430 kts 310°
2026-04-23 10:00 21.17391 110.25553 34944 ft 425 kts 299°
2026-04-23 10:00 21.20226 110.20016 34938 ft 424 kts 296°
2026-04-23 10:01 21.23028 110.14446 34942 ft 424 kts 296°
2026-04-23 10:01 21.25830 110.08878 34952 ft 424 kts 296°
2026-04-23 10:02 21.28631 110.03315 34959 ft 423 kts 295°
2026-04-23 10:02 21.31417 109.97762 34966 ft 422 kts 295°
2026-04-23 10:03 21.34193 109.92218 34968 ft 422 kts 295°
2026-04-23 10:03 21.36967 109.86680 34968 ft 421 kts 295°
2026-04-23 10:04 21.39739 109.81148 34971 ft 421 kts 295°
2026-04-23 10:04 21.42505 109.75614 34965 ft 421 kts 295°
2026-04-23 10:05 21.45265 109.70081 34973 ft 420 kts 296°
2026-04-23 10:05 21.48020 109.64566 34969 ft 419 kts 295°
2026-04-23 10:06 21.50772 109.59052 34968 ft 419 kts 295°
2026-04-23 10:06 21.53523 109.53531 34967 ft 419 kts 294°
2026-04-23 10:07 21.56393 109.48075 34965 ft 423 kts 303°
2026-04-23 10:07 21.58394 109.45733 34968 ft 430 kts 315°
2026-04-23 10:07 21.60831 109.43909 34967 ft 438 kts 327°
2026-04-23 10:07 21.63720 109.42664 34958 ft 447 kts 340°
2026-04-23 10:08 21.66775 109.42111 34958 ft 454 kts 347°
2026-04-23 10:08 21.73050 109.41308 34955 ft 455 kts 347°
2026-04-23 10:09 21.82481 109.40093 34959 ft 455 kts 347°
2026-04-23 10:09 21.88768 109.39277 34965 ft 455 kts 347°
2026-04-23 10:10 21.95065 109.38466 34966 ft 455 kts 346°
2026-04-23 10:10 22.01353 109.37655 34972 ft 455 kts 346°
2026-04-23 10:11 22.07639 109.36839 34975 ft 455 kts 346°
2026-04-23 10:11 22.13914 109.36019 34983 ft 454 kts 346°
2026-04-23 10:12 22.20192 109.35196 34986 ft 454 kts 346°
2026-04-23 10:12 22.26472 109.34418 34986 ft 457 kts 350°
2026-04-23 10:13 22.32891 109.35094 34992 ft 470 kts
2026-04-23 10:13 22.39317 109.36372 34994 ft 470 kts
2026-04-23 10:14 22.45740 109.37637 34991 ft 469 kts
2026-04-23 10:14 22.52165 109.38897 34991 ft 469 kts
2026-04-23 10:15 22.58587 109.40154 34981 ft 469 kts
2026-04-23 10:15 22.63923 109.41205 34982 ft 469 kts
2026-04-23 10:16 22.71424 109.42692 34979 ft 469 kts
2026-04-23 10:16 22.76760 109.43749 34973 ft 469 kts
2026-04-23 10:17 22.83184 109.45012 34978 ft 469 kts
2026-04-23 10:17 22.89606 109.46279 34981 ft 470 kts
2026-04-23 10:18 22.96042 109.47550 34976 ft 470 kts
2026-04-23 10:18 23.02478 109.48828 34980 ft 470 kts
2026-04-23 10:19 23.08917 109.50112 34999 ft 471 kts
2026-04-23 10:19 23.15362 109.51393 34999 ft 471 kts
2026-04-23 10:20 23.21808 109.52682 34994 ft 471 kts
2026-04-23 10:20 23.28264 109.53959 34996 ft 472 kts
2026-04-23 10:21 23.34725 109.55246 35004 ft 472 kts
2026-04-23 10:21 23.41186 109.56541 35005 ft 472 kts
2026-04-23 10:22 23.47651 109.57827 35009 ft 472 kts
2026-04-23 10:22 23.54112 109.59111 35010 ft 472 kts
2026-04-23 10:23 23.60567 109.60411 35014 ft 472 kts
2026-04-23 10:23 23.67024 109.61705 35017 ft 471 kts
2026-04-23 10:24 23.73478 109.62994 35023 ft 471 kts
2026-04-23 10:24 23.79922 109.64290 35024 ft 471 kts
2026-04-23 10:25 23.86369 109.65584 35024 ft 471 kts
2026-04-23 10:25 23.92807 109.66881 35026 ft 471 kts
2026-04-23 10:26 23.99250 109.68172 35034 ft 471 kts
2026-04-23 10:26 24.05696 109.69469 35035 ft 471 kts
2026-04-23 10:27 24.12132 109.70769 35034 ft 470 kts
2026-04-23 10:27 24.18568 109.72070 35037 ft 470 kts
2026-04-23 10:28 24.25001 109.73360 35038 ft 470 kts
2026-04-23 10:28 24.31430 109.74653 35034 ft 469 kts
2026-04-23 10:29 24.37854 109.75959 35041 ft 470 kts
2026-04-23 10:29 24.44279 109.77266 35042 ft 469 kts
2026-04-23 10:30 24.50703 109.78568 35045 ft 469 kts
2026-04-23 10:30 24.57122 109.79863 35046 ft 469 kts
2026-04-23 10:31 24.63539 109.81160 35044 ft 469 kts
2026-04-23 10:31 24.66729 109.82093 35043 ft 481 kts 11°
2026-04-23 10:31 24.69810 109.83627 35042 ft 493 kts 21°
2026-04-23 10:32 24.75592 109.87820 35040 ft 499 kts 26°
2026-04-23 10:32 24.81349 109.92101 35042 ft 500 kts 26°
2026-04-23 10:33 24.87117 109.96377 35041 ft 500 kts 26°
2026-04-23 10:33 24.92886 110.00652 35043 ft 500 kts 26°
2026-04-23 10:34 24.98654 110.04936 35038 ft 500 kts 26°
2026-04-23 10:34 25.04417 110.09233 35044 ft 500 kts 26°
2026-04-23 10:35 25.10184 110.13537 35049 ft 501 kts 26°
2026-04-23 10:35 25.15957 110.17847 35053 ft 501 kts 26°
2026-04-23 10:36 25.21731 110.22158 35056 ft 501 kts 26°
2026-04-23 10:36 25.27515 110.26456 35054 ft 501 kts 26°
2026-04-23 10:37 25.33301 110.30745 35060 ft 501 kts 26°
2026-04-23 10:37 25.39089 110.35045 35061 ft 502 kts 26°
2026-04-23 10:38 25.44879 110.39363 35071 ft 502 kts 26°
2026-04-23 10:38 25.50688 110.43651 35079 ft 502 kts 25°
2026-04-23 10:39 25.56507 110.47915 35082 ft 501 kts 25°
2026-04-23 10:39 25.62376 110.52064 35088 ft 499 kts 23°
2026-04-23 10:40 25.68288 110.56091 35089 ft 498 kts 23°
2026-04-23 10:40 25.74190 110.60133 35087 ft 499 kts 23°
2026-04-23 10:41 25.80090 110.64193 35087 ft 499 kts 22°
2026-04-23 10:41 25.86009 110.68197 35092 ft 498 kts 22°
2026-04-23 10:42 25.91941 110.72184 35091 ft 499 kts 22°
2026-04-23 10:42 25.97869 110.76190 35085 ft 499 kts 22°
2026-04-23 10:43 26.03797 110.80223 35105 ft 501 kts 22°
2026-04-23 10:43 26.09745 110.84268 35116 ft 501 kts 22°
2026-04-23 10:44 26.15691 110.88293 35120 ft 500 kts 22°
2026-04-23 10:44 26.21631 110.92317 35113 ft 499 kts 22°
2026-04-23 10:45 26.27553 110.96342 35110 ft 499 kts 22°
2026-04-23 10:45 26.33478 111.00370 35120 ft 499 kts 22°
2026-04-23 10:46 26.39408 111.04403 35116 ft 499 kts 22°
2026-04-23 10:46 26.45328 111.08436 35117 ft 498 kts 22°
2026-04-23 10:47 26.51244 111.12480 35112 ft 498 kts 22°
2026-04-23 10:47 26.57149 111.16514 35105 ft 497 kts 22°
2026-04-23 10:48 26.63024 111.20626 35103 ft 499 kts 24°
2026-04-23 10:48 26.68827 111.24925 35105 ft 501 kts 25°
2026-04-23 10:49 26.74624 111.29262 35101 ft 500 kts 25°
2026-04-23 10:49 26.80443 111.33544 35105 ft 501 kts 24°
2026-04-23 10:50 26.86284 111.37810 35105 ft 501 kts 24°
2026-04-23 10:50 26.92124 111.42087 35116 ft 501 kts 24°
2026-04-23 10:51 26.98053 111.46153 35111 ft 498 kts 21°
2026-04-23 10:51 27.04061 111.50002 35118 ft 497 kts 20°
2026-04-23 10:52 27.10069 111.53854 35116 ft 498 kts 21°
2026-04-23 10:52 27.16049 111.57786 35121 ft 498 kts 21°
2026-04-23 10:53 27.21997 111.61804 35122 ft 499 kts 22°
2026-04-23 10:53 27.27902 111.65924 35127 ft 500 kts 23°
2026-04-23 10:54 27.33806 111.70056 35113 ft 499 kts 22°
2026-04-23 10:54 27.39715 111.74155 35115 ft 499 kts 22°
2026-04-23 10:55 27.45627 111.78249 35112 ft 499 kts 23°
2026-04-23 10:55 27.51541 111.82341 35109 ft 499 kts 22°
2026-04-23 10:56 27.57453 111.86446 35106 ft 499 kts 22°
2026-04-23 10:56 27.63361 111.90562 35104 ft 499 kts 22°
2026-04-23 10:57 27.69274 111.94688 35105 ft 500 kts 22°
2026-04-23 10:57 27.75183 111.98817 35113 ft 500 kts 22°
2026-04-23 10:58 27.81057 112.02916 35112 ft 499 kts 22°
2026-04-23 10:58 27.86969 112.07040 35113 ft 499 kts 22°
2026-04-23 10:59 27.91921 112.10497 35112 ft 499 kts 22°
2026-04-23 10:59 27.97827 112.14632 35125 ft 499 kts 22°
2026-04-23 11:00 28.03743 112.18727 35126 ft 498 kts 22°
2026-04-23 11:00 28.09629 112.22886 35122 ft 501 kts 25°
2026-04-23 11:01 28.15326 112.27480 35124 ft 504 kts 28°
2026-04-23 11:01 28.20950 112.32217 35127 ft 503 kts 27°
2026-04-23 11:02 28.26629 112.36804 35129 ft 500 kts 26°
2026-04-23 11:02 28.32339 112.41278 35133 ft 498 kts 26°
2026-04-23 11:03 28.38039 112.45754 35128 ft 498 kts 27°
2026-04-23 11:03 28.43709 112.50274 35128 ft 497 kts 27°
2026-04-23 11:04 28.49318 112.54769 35125 ft 496 kts 27°
2026-04-23 11:04 28.54966 112.59284 35123 ft 496 kts 27°
2026-04-23 11:05 28.60605 112.63784 35112 ft 495 kts 27°
2026-04-23 11:05 28.66231 112.68285 35112 ft 494 kts 27°
2026-04-23 11:06 28.74672 112.75049 35110 ft 494 kts 27°
2026-04-23 11:07 28.80295 112.79567 35115 ft 495 kts 27°
2026-04-23 11:07 28.85920 112.84093 35115 ft 495 kts 27°
2026-04-23 11:08 28.91544 112.88633 35116 ft 495 kts 27°
2026-04-23 11:08 28.94363 112.90908 35375 ft 500 kts 25°
2026-04-23 11:08 28.97244 112.93217 35174 ft 513 kts 25°
2026-04-23 11:09 29.03185 112.97986 35118 ft 529 kts 25°
2026-04-23 11:09 29.09223 113.02880 35111 ft 534 kts 26°
2026-04-23 11:10 29.15279 113.07816 35111 ft 534 kts 26°
2026-04-23 11:10 29.21331 113.12740 35107 ft 534 kts 26°
2026-04-23 11:11 29.27387 113.17654 35111 ft 532 kts 25°
2026-04-23 11:11 29.33423 113.22559 35117 ft 532 kts 26°
2026-04-23 11:12 29.39398 113.27411 35121 ft 532 kts 26°
2026-04-23 11:12 29.45442 113.32305 35125 ft 532 kts 26°
2026-04-23 11:13 29.51486 113.37194 35137 ft 531 kts 26°
2026-04-23 11:13 29.57511 113.42094 35137 ft 530 kts 26°
2026-04-23 11:14 29.63525 113.46992 35139 ft 529 kts 26°
2026-04-23 11:14 29.69484 113.51850 35139 ft 528 kts 26°
2026-04-23 11:15 29.75474 113.56739 35141 ft 527 kts 26°
2026-04-23 11:15 29.81494 113.61650 35138 ft 526 kts 26°
2026-04-23 11:16 29.87452 113.66533 35139 ft 525 kts 26°
2026-04-23 11:16 29.93596 113.70871 35143 ft 510 kts 16°
2026-04-23 11:17 29.99894 113.74490 35142 ft 509 kts 16°
2026-04-23 11:17 30.06227 113.78168 35140 ft 509 kts 17°
2026-04-23 11:18 30.12545 113.81853 35141 ft 508 kts 17°
2026-04-23 11:18 30.18866 113.85529 35143 ft 508 kts 17°
2026-04-23 11:19 30.25176 113.89195 35143 ft 507 kts 17°
2026-04-23 11:19 30.31473 113.92868 35147 ft 506 kts 17°
2026-04-23 11:20 30.37754 113.96545 35145 ft 506 kts 17°
2026-04-23 11:20 30.44030 114.00225 35147 ft 505 kts 17°
2026-04-23 11:21 30.50295 114.03892 35145 ft 504 kts 17°
2026-04-23 11:21 30.56545 114.07552 35149 ft 503 kts 17°
2026-04-23 11:22 30.62784 114.11229 35154 ft 503 kts 18°
2026-04-23 11:22 30.69014 114.14917 35158 ft 502 kts 18°
2026-04-23 11:23 30.75004 114.19245 35156 ft 518 kts 34°
2026-04-23 11:23 30.77559 114.22245 35155 ft 527 kts 45°
2026-04-23 11:23 30.79678 114.25742 35149 ft 533 kts 57°
2026-04-23 11:24 30.82660 114.33676 35133 ft 536 kts 67°
2026-04-23 11:24 30.85270 114.41805 35123 ft 537 kts 69°
2026-04-23 11:25 30.87826 114.49975 35117 ft 537 kts 68°
2026-04-23 11:25 30.90443 114.58129 35111 ft 537 kts 68°
2026-04-23 11:26 30.93095 114.66263 35100 ft 537 kts 68°
2026-04-23 11:26 30.95752 114.74398 35104 ft 537 kts 68°
2026-04-23 11:27 30.98381 114.82546 35107 ft 538 kts 68°
2026-04-23 11:27 31.01001 114.90713 35114 ft 538 kts 68°
2026-04-23 11:28 31.03597 114.98831 35120 ft 538 kts 68°
2026-04-23 11:28 31.06204 115.07005 35130 ft 538 kts 68°
2026-04-23 11:29 31.08815 115.15185 35118 ft 538 kts 68°
2026-04-23 11:29 31.11424 115.23363 35113 ft 537 kts 68°
2026-04-23 11:30 31.14016 115.31540 35119 ft 537 kts 69°
2026-04-23 11:30 31.16646 115.39709 35123 ft 538 kts 68°
2026-04-23 11:31 31.19308 115.47872 35128 ft 538 kts 68°
2026-04-23 11:31 31.21959 115.56039 35130 ft 537 kts 68°
2026-04-23 11:32 31.24589 115.64209 35130 ft 537 kts 68°
2026-04-23 11:32 31.27204 115.72390 35134 ft 537 kts 68°
2026-04-23 11:33 31.29815 115.80575 35132 ft 537 kts 68°
2026-04-23 11:33 31.32423 115.88750 35137 ft 537 kts 68°
2026-04-23 11:34 31.35066 115.96919 35134 ft 536 kts 68°
2026-04-23 11:34 31.37738 116.05058 35138 ft 536 kts 68°
2026-04-23 11:35 31.40403 116.13200 35127 ft 535 kts 68°
2026-04-23 11:35 31.43044 116.21356 35129 ft 536 kts 68°
2026-04-23 11:36 31.45674 116.29517 35128 ft 536 kts 68°
2026-04-23 11:36 31.48304 116.37680 35132 ft 536 kts 68°
2026-04-23 11:37 31.50933 116.45845 35131 ft 536 kts 68°
2026-04-23 11:37 31.53557 116.54019 35133 ft 536 kts 68°
2026-04-23 11:37 31.54868 116.58117 34980 ft 537 kts 68°
2026-04-23 11:38 31.56177 116.62210 34494 ft 536 kts 68°
2026-04-23 11:38 31.57486 116.66302 33753 ft 538 kts 68°
2026-04-23 11:38 31.58796 116.70401 33079 ft 536 kts 69°
2026-04-23 11:38 31.60101 116.74497 32411 ft 535 kts 69°
2026-04-23 11:39 31.61398 116.78578 31744 ft 533 kts 69°
2026-04-23 11:39 31.62689 116.82653 31079 ft 532 kts 69°
2026-04-23 11:39 31.63976 116.86714 30432 ft 530 kts 69°
2026-04-23 11:39 31.65256 116.90747 29885 ft 525 kts 69°
2026-04-23 11:40 31.66525 116.94755 29331 ft 520 kts 69°
2026-04-23 11:40 31.67773 116.98706 28843 ft 513 kts 69°
2026-04-23 11:40 31.69000 117.02598 28044 ft 504 kts 69°
2026-04-23 11:40 31.70192 117.06418 27289 ft 493 kts 69°
2026-04-23 11:41 31.70967 117.08925 27070 ft 494 kts 69°
2026-04-23 11:41 31.72525 117.14001 26406 ft 491 kts 69°
2026-04-23 11:41 31.73677 117.17755 25906 ft 486 kts 69°
2026-04-23 11:41 31.74815 117.21476 25402 ft 481 kts 71°
2026-04-23 11:42 31.75592 117.25268 24895 ft 475 kts 84°
2026-04-23 11:42 31.75710 117.27826 24556 ft 470 kts 94°
2026-04-23 11:42 31.75006 117.32810 23867 ft 458 kts 112°
2026-04-23 11:42 31.73734 117.36200 23289 ft 453 kts 125°
2026-04-23 11:43 31.71982 117.39221 22847 ft 442 kts 131°
2026-04-23 11:43 31.70179 117.42163 22261 ft 445 kts 130°
2026-04-23 11:43 31.68376 117.45115 21752 ft 444 kts 130°
2026-04-23 11:43 31.67190 117.47061 21409 ft 441 kts 130°
2026-04-23 11:44 31.65414 117.49979 20895 ft 438 kts 129°
2026-04-23 11:44 31.63655 117.52880 20381 ft 435 kts 128°
2026-04-23 11:44 31.62214 117.56000 19861 ft 436 kts 114°
2026-04-23 11:44 31.61434 117.59424 19342 ft 435 kts 98°
2026-04-23 11:45 31.61372 117.62959 18840 ft 432 kts 84°
2026-04-23 11:45 31.61717 117.66439 18336 ft 428 kts 83°
2026-04-23 11:45 31.62064 117.69893 17798 ft 424 kts 83°
2026-04-23 11:45 31.62401 117.73303 17312 ft 419 kts 83°
2026-04-23 11:46 31.62731 117.76680 16843 ft 414 kts 83°
2026-04-23 11:46 31.63055 117.80010 16371 ft 409 kts 83°
2026-04-23 11:46 31.63375 117.83309 15907 ft 405 kts 82°
2026-04-23 11:46 31.63694 117.86572 15453 ft 400 kts 82°
2026-04-23 11:47 31.64008 117.89793 15088 ft 393 kts 82°
2026-04-23 11:47 31.64316 117.92968 14556 ft 392 kts 82°
2026-04-23 11:47 31.64621 117.96109 14268 ft 383 kts 82°
2026-04-23 11:47 31.64920 117.99210 13769 ft 381 kts 82°
2026-04-23 11:48 31.65215 118.02284 13162 ft 377 kts 82°
2026-04-23 11:48 31.65502 118.05304 12636 ft 367 kts 82°
2026-04-23 11:48 31.65783 118.08261 12255 ft 364 kts 82°
2026-04-23 11:48 31.66059 118.11191 11802 ft 358 kts 82°
2026-04-23 11:49 31.66331 118.14082 11333 ft 354 kts 82°
2026-04-23 11:49 31.66599 118.16931 10872 ft 349 kts 83°
2026-04-23 11:49 31.66679 118.19768 10396 ft 346 kts 88°
2026-04-23 11:49 31.66698 118.22532 10260 ft 328 kts 89°
2026-04-23 11:50 31.66705 118.25104 10136 ft 303 kts 89°
2026-04-23 11:50 31.66709 118.27502 9853 ft 287 kts 89°
2026-04-23 11:50 31.66713 118.29815 9259 ft 282 kts 89°
2026-04-23 11:50 31.66718 118.32111 8587 ft 280 kts 89°
2026-04-23 11:51 31.66722 118.34381 7973 ft 276 kts 90°
2026-04-23 11:51 31.66726 118.36566 7724 ft 258 kts 90°
2026-04-23 11:51 31.66731 118.38592 7596 ft 238 kts 90°
2026-04-23 11:51 31.66736 118.40479 7495 ft 225 kts 90°
2026-04-23 11:52 31.66555 118.42225 7388 ft 209 kts 105°
2026-04-23 11:52 31.66025 118.43798 7061 ft 206 kts 114°
2026-04-23 11:52 31.65422 118.45322 6756 ft 207 kts 113°
2026-04-23 11:52 31.64813 118.46871 6424 ft 211 kts 113°
2026-04-23 11:53 31.64195 118.48446 6081 ft 214 kts 114°
2026-04-23 11:53 31.63571 118.50034 5753 ft 216 kts 114°
2026-04-23 11:53 31.62938 118.51639 5429 ft 217 kts 114°
2026-04-23 11:53 31.62302 118.53255 5098 ft 220 kts 114°
2026-04-23 11:54 31.61659 118.54891 4763 ft 221 kts 114°
2026-04-23 11:54 31.61029 118.56492 4674 ft 209 kts 114°
2026-04-23 11:54 31.60445 118.57973 4615 ft 191 kts 113°
2026-04-23 11:54 31.60125 118.59428 4574 ft 183 kts 91°
2026-04-23 11:55 31.60341 118.60875 4328 ft 181 kts 70°
2026-04-23 11:55 31.60802 118.62247 4094 ft 181 kts 70°
2026-04-23 11:55 31.61257 118.63628 3879 ft 182 kts 70°
2026-04-23 11:55 31.61712 118.65012 3667 ft 181 kts 70°
2026-04-23 11:56 31.62166 118.66390 3445 ft 181 kts 70°
2026-04-23 11:56 31.62458 118.67276 3298 ft 181 kts 70°
2026-04-23 11:57 31.62629 118.67795 3230 ft 181 kts 70°
2026-04-23 11:57 31.63082 118.69172 2985 ft 181 kts 69°
2026-04-23 11:57 31.63666 118.70469 2784 ft 181 kts 58°
2026-04-23 11:58 31.64340 118.71717 2621 ft 181 kts 59°
2026-04-23 11:58 31.64763 118.72505 2487 ft 180 kts 59°
2026-04-23 11:58 31.64874 118.72712 2442 ft 180 kts 59°
2026-04-23 11:58 31.65539 118.73952 2211 ft 175 kts 58°
2026-04-23 11:59 31.66160 118.75110 2001 ft 159 kts 58°
2026-04-23 11:59 31.66711 118.76137 1783 ft 145 kts 58°
2026-04-23 11:59 31.67239 118.77123 1584 ft 140 kts 58°
2026-04-23 11:59 31.67755 118.78087 1399 ft 139 kts 58°
2026-04-23 12:00 31.68268 118.79046 1208 ft 138 kts 58°
2026-04-23 12:00 31.68779 118.80000 1018 ft 138 kts 58°
2026-04-23 12:00 31.69290 118.80957 862 ft 139 kts 58°
2026-04-23 12:00 31.69808 118.81917 659 ft 139 kts 58°
2026-04-23 12:01 31.70323 118.82881 469 ft 140 kts 58°
2026-04-23 12:01 31.70840 118.83846 291 ft 140 kts 58°
2026-04-23 12:01 31.71356 118.84813 111 ft 140 kts 59°
2026-04-23 12:01 31.71839 118.85730 58 ft 115 kts 57°
2026-04-23 12:02 31.72172 118.86354 55 ft 65 kts 58°
2026-04-23 12:02 31.72334 118.86616 58 ft 31 kts 38°
2026-04-23 12:02 31.72435 118.86689 57 ft 7 kts 29°
2026-04-23 12:02 31.72473 118.86714 54 ft 6 kts 29°
2026-04-23 12:03 31.72503 118.86733 55 ft 4 kts 29°
2026-04-23 12:03 31.72525 118.86748 52 ft 3 kts 29°
2026-04-23 12:03 31.72556 118.86749 59 ft 7 kts 344°
2026-04-23 12:03 31.72616 118.86708 55 ft 13 kts 328°
2026-04-23 12:04 31.72689 118.86655 54 ft 8 kts 334°
2026-04-23 12:04 31.72748 118.86689 53 ft 13 kts 57°
2026-04-23 12:04 31.72806 118.86798 53 ft 12 kts 57°
2026-04-23 12:04 31.72861 118.86823 52 ft 9 kts 330°
2026-04-23 12:05 31.72905 118.86789 55 ft 0 kts 327°